Weather History for KAUM - February, 2013

Change the Weather History Date:

Thursday, February 21, 2013

  Actual Average Record
Temperature  
Mean Temperature 14 °F -  
Max Temperature 23 °F 30 °F 42 °F (2007)
Min Temperature 6 °F 16 °F -11 °F (2001)
Degree Days  
Heating Degree Days 50    
Moisture  
Dew Point 8 °F    
Average Humidity 73    
Maximum Humidity 86    
Minimum Humidity 59    
Precipitation  
Precipitation 0.00 in - - ()
Sea Level Pressure  
Sea Level Pressure 30.21 in    
Wind  
Wind Speed 7 mph (ENE)    
Max Wind Speed 18 mph    
Max Gust Speed 24 mph    
Visibility 9 miles    
Events Snow    
Averages and records for this station are not official NWS values.
T = Trace of Precipitation, MM = Missing Value Source: NWS Daily Summary

Daily Weather History Graph

Daily Weather History Graph

Search for Another Location

Airport or City:

Trip Planner

Search our weather history database for the weather conditions in past years. The results will help you decide how hot, cold, wet, or windy it might be!

Date:

Astronomy

Feb. 21, 2013 Rise Set
Actual Time 7:00 AM CST 5:50 PM CST
Civil Twilight 6:31 AM CST 6:19 PM CST
Nautical Twilight 5:58 AM CST 6:52 PM CST
Astronomical Twilight 5:25 AM CST 7:26 PM CST
Moon 2:00 PM CST (2/21) 4:10 AM CST (2/21)
Length of Visible Light 11h 47m
Length of Day
10h 49m
Waxing Gibbous, 84% of the Moon is Illuminated
Feb 21
Waxing Gibbous
Feb 25
Full
Mar 4
Last Quarter
Mar 11
New
Mar 19
First Quarter

Hourly Weather History & Observations

Time (CST) Temp. Windchill Dew Point Humidity Pressure Visibility Wind Dir Wind Speed Gust Speed Precip Events Conditions
12:15 AM 10.4 °F - 5.0 °F 79% 30.32 in 10.0 mi Calm Calm - N/A   Clear
12:35 AM 10.4 °F - 3.2 °F 73% 30.33 in 10.0 mi Calm Calm - N/A   Clear
12:55 AM 8.6 °F - 3.2 °F 79% 30.33 in 10.0 mi Calm Calm - N/A   Clear
1:15 AM 8.6 °F - 3.2 °F 79% 30.33 in 10.0 mi Calm Calm - N/A   Clear
1:35 AM 8.6 °F - 3.2 °F 79% 30.34 in 10.0 mi Calm Calm - N/A   Clear
1:56 AM 8.6 °F - 3.2 °F 79% 30.34 in 10.0 mi Calm Calm - N/A   Clear
2:15 AM 8.6 °F - 3.2 °F 79% 30.35 in 10.0 mi Calm Calm - N/A   Clear
2:35 AM 8.6 °F - 3.2 °F 79% 30.35 in 10.0 mi Calm Calm - N/A   Clear
2:55 AM 8.6 °F - 3.2 °F 79% 30.35 in 10.0 mi Calm Calm - N/A   Clear
3:15 AM 8.6 °F - 3.2 °F 79% 30.35 in 10.0 mi Calm Calm - N/A   Clear
3:35 AM 6.8 °F -0.1 °F 1.4 °F 79% 30.34 in 10.0 mi ENE 3.5 mph - N/A   Clear
3:55 AM 8.6 °F 0.1 °F 3.2 °F 79% 30.32 in 10.0 mi ENE 4.6 mph - N/A   Clear
4:15 AM 8.6 °F -1.3 °F 3.2 °F 79% 30.31 in 10.0 mi ENE 5.8 mph - N/A   Clear
4:35 AM 10.4 °F -1.5 °F 3.2 °F 73% 30.30 in 10.0 mi ENE 8.1 mph - N/A   Clear
4:56 AM 10.4 °F -2.4 °F 3.2 °F 73% 30.28 in 10.0 mi ENE 9.2 mph - N/A   Clear
5:15 AM 10.4 °F -4.8 °F 3.2 °F 73% 30.22 in 10.0 mi ENE 12.7 mph - N/A   Clear
5:56 AM 10.4 °F 4.0 °F 3.2 °F 73% 30.35 in 10.0 mi South 3.5 mph - N/A   Clear
6:15 AM 10.4 °F 2.2 °F 3.2 °F 73% 30.35 in 10.0 mi ESE 4.6 mph - N/A   Clear
6:35 AM 8.6 °F 0.1 °F 3.2 °F 79% 30.33 in 10.0 mi East 4.6 mph - N/A   Clear
6:56 AM 8.6 °F -1.3 °F 3.2 °F 79% 30.32 in 10.0 mi East 5.8 mph - N/A   Clear
7:15 AM 8.6 °F -1.3 °F 3.2 °F 79% 30.32 in 10.0 mi East 5.8 mph - N/A   Clear
7:35 AM 10.4 °F 0.8 °F 3.2 °F 73% 30.32 in 10.0 mi East 5.8 mph - N/A   Clear
7:55 AM 10.4 °F 0.8 °F 5.0 °F 79% 30.30 in 10.0 mi ENE 5.8 mph - N/A   Clear
8:15 AM 12.2 °F -0.2 °F 5.0 °F 73% 30.31 in 10.0 mi East 9.2 mph - N/A   Clear
8:35 AM 12.2 °F -0.2 °F 6.8 °F 79% 30.30 in 10.0 mi East 9.2 mph - N/A   Clear
8:55 AM 12.2 °F -1.8 °F 6.8 °F 79% 30.30 in 10.0 mi East 11.5 mph - N/A   Clear
9:16 AM 14.0 °F 0.5 °F 6.8 °F 73% 30.30 in 10.0 mi East 11.5 mph - N/A   Clear
9:35 AM 14.0 °F 0.5 °F 6.8 °F 73% 30.28 in 10.0 mi East 11.5 mph - N/A   Clear
9:55 AM 15.8 °F 2.7 °F 6.8 °F 68% 30.28 in 10.0 mi East 11.5 mph - N/A   Clear
10:16 AM 15.8 °F 3.4 °F 8.6 °F 73% 30.30 in 10.0 mi East 10.4 mph - N/A   Clear
10:35 AM 15.8 °F 5.1 °F 8.6 °F 73% 30.31 in 10.0 mi ESE 8.1 mph - N/A   Clear
10:55 AM 17.6 °F 8.2 °F 8.6 °F 68% 30.32 in 10.0 mi ESE 6.9 mph - N/A   Clear
11:15 AM 17.6 °F 5.7 °F 8.6 °F 68% 30.29 in 10.0 mi East 10.4 mph - N/A   Clear
11:35 AM 19.4 °F 7.2 °F 10.4 °F 68% 30.27 in 10.0 mi ENE 11.5 mph - N/A   Clear
12:01 PM 19.4 °F 6.0 °F 10.4 °F 68% 30.25 in 10.0 mi East 13.8 mph - N/A   Clear
12:35 PM 21.2 °F 9.5 °F 10.4 °F 63% 30.23 in 10.0 mi East 11.5 mph - N/A   Clear
12:49 PM 21.2 °F 10.1 °F 10.4 °F 63% 30.22 in 10.0 mi East 10.4 mph - N/A   Clear
1:15 PM 21.2 °F 9.5 °F 10.4 °F 63% 30.21 in 10.0 mi East 11.5 mph - N/A   Clear
1:35 PM 21.2 °F 9.5 °F 10.4 °F 63% 30.20 in 10.0 mi East 11.5 mph - N/A   Clear
1:55 PM 23.0 °F 12.4 °F 10.4 °F 59% 30.18 in 10.0 mi ENE 10.4 mph - N/A   Clear
2:15 PM 21.2 °F 8.3 °F 10.4 °F 63% 30.18 in 10.0 mi ENE 13.8 mph - N/A   Clear
2:36 PM 23.0 °F 11.1 °F 12.2 °F 63% 30.17 in 10.0 mi ENE 12.7 mph 18.4 mph N/A   Clear
2:55 PM 21.2 °F 7.8 °F 12.2 °F 68% 30.15 in 10.0 mi ENE 15.0 mph - N/A   Clear
3:15 PM 21.2 °F 7.3 °F 12.2 °F 68% 30.14 in 10.0 mi ENE 16.1 mph 23.0 mph N/A   Clear
3:36 PM 21.2 °F 7.8 °F 12.2 °F 68% 30.14 in 10.0 mi ENE 15.0 mph 19.6 mph N/A   Clear
3:55 PM 21.2 °F 7.8 °F 12.2 °F 68% 30.13 in 10.0 mi ENE 15.0 mph 20.7 mph N/A   Clear
4:15 PM 21.2 °F 7.3 °F 10.4 °F 63% 30.12 in 10.0 mi ENE 16.1 mph 21.9 mph N/A   Clear
4:36 PM 19.4 °F 4.1 °F 10.4 °F 68% 30.11 in 10.0 mi ENE 18.4 mph 24.2 mph N/A   Clear
4:55 PM 19.4 °F 5.0 °F 10.4 °F 68% 30.11 in 10.0 mi ENE 16.1 mph 23.0 mph N/A   Clear
5:15 PM 19.4 °F 4.5 °F 10.4 °F 68% 30.11 in 10.0 mi ENE 17.3 mph 21.9 mph N/A   Clear
5:36 PM 19.4 °F 4.1 °F 10.4 °F 68% 30.10 in 10.0 mi East 18.4 mph - N/A   Clear
5:55 PM 19.4 °F 5.0 °F 10.4 °F 68% 30.11 in 10.0 mi East 16.1 mph 20.7 mph N/A   Mostly Cloudy
6:15 PM 19.4 °F 7.2 °F 10.4 °F 68% 30.10 in 10.0 mi East 11.5 mph 20.7 mph N/A   Overcast
6:35 PM 19.4 °F 5.0 °F 10.4 °F 68% 30.10 in 10.0 mi East 16.1 mph - N/A   Overcast
6:55 PM 19.4 °F 7.2 °F 10.4 °F 68% 30.10 in 10.0 mi ENE 11.5 mph - N/A   Overcast
7:16 PM 19.4 °F 8.6 °F 12.2 °F 74% 30.10 in 10.0 mi East 9.2 mph - N/A   Overcast
7:35 PM 19.4 °F 8.6 °F 12.2 °F 74% 30.09 in 10.0 mi East 9.2 mph - N/A   Overcast
7:55 PM 19.4 °F 6.6 °F 12.2 °F 74% 30.08 in 10.0 mi ENE 12.7 mph 17.3 mph N/A   Overcast
8:16 PM 19.4 °F 7.9 °F 12.2 °F 74% 30.07 in 10.0 mi ENE 10.4 mph 19.6 mph N/A   Overcast
8:35 PM 19.4 °F 6.0 °F 12.2 °F 74% 30.04 in 10.0 mi ENE 13.8 mph 19.6 mph N/A   Overcast
8:55 PM 19.4 °F 5.5 °F 12.2 °F 74% 30.03 in 10.0 mi ENE 15.0 mph 20.7 mph N/A   Overcast
9:15 PM 19.4 °F 6.0 °F 12.2 °F 74% 30.03 in 10.0 mi ENE 13.8 mph 23.0 mph N/A   Overcast
9:36 PM 19.4 °F 5.0 °F 12.2 °F 74% 30.01 in 7.0 mi ENE 16.1 mph 19.6 mph N/A   Overcast
9:55 PM 19.4 °F 8.6 °F 12.2 °F 74% 30.01 in 5.0 mi NE 9.2 mph - N/A Snow Light Snow
10:16 PM 19.4 °F 6.0 °F 14.0 °F 80% 30.00 in 3.0 mi ENE 13.8 mph 19.6 mph N/A Snow Light Snow
10:35 PM 19.4 °F 5.5 °F 14.0 °F 80% 29.98 in 1.8 mi ENE 15.0 mph - N/A Snow Light Snow
10:55 PM 19.4 °F 5.5 °F 15.8 °F 86% 29.98 in 1.2 mi ENE 15.0 mph 20.7 mph N/A Snow Light Snow
11:15 PM 19.4 °F 4.5 °F 15.8 °F 86% 29.97 in 1.5 mi ENE 17.3 mph 20.7 mph N/A Snow Light Snow
11:35 PM 19.4 °F 4.1 °F 15.8 °F 86% 29.93 in 1.2 mi NE 18.4 mph 24.2 mph N/A Snow Light Snow